Cap Theodora — SVAM5 — position and weather

sailwx.info

Track history (hours):
 
Tides and Currents Weather Stations Pressure Air Temp Water Temp Dewpoint Dewpoint Depression Visibility Wind Speed Wind Dir Waves Ship Positions

Cap Theodora

Last reported at 2015-Apr-05 20:34 UTC. Time now 2015-May-06 07:24 UTC.
Position N 38°28' W 030°23'.
Warning: this ship's position is 30 days out of date.

Length 274 m; draft 15.2 m.

Type: Tanker. MMSI: 240840000.

Date/timePositionNaut miles runAvg speedWind from/ knotsBaromVisibWave heightAir tempDewpointWater temp
2015-Apr-05 20:34N 38°28' W 030°23'1514.6
2015-Apr-05 19:33N 38°25' W 030°05'1414.0
2015-Apr-05 18:33N 38°21' W 029°48'1413.9
2015-Apr-05 17:33N 38°18' W 029°31'1413.8
2015-Apr-05 16:33N 38°14' W 029°13'1413.6
2015-Apr-05 15:33N 38°11' W 028°57'1413.6
2015-Apr-05 14:33N 38°08' W 028°40'1413.7
2015-Apr-05 13:33N 38°04' W 028°23'1413.8
2015-Apr-05 12:33N 38°01' W 028°06'1414.0
2015-Apr-05 11:33N 37°57' W 027°49'1413.6
2015-Apr-05 10:33N 37°54' W 027°32'1312.7
2015-Apr-05 09:34N 37°51' W 027°17'1312.7
2015-Apr-05 08:33N 37°47' W 027°01'1312.9
2015-Apr-05 07:33N 37°44' W 026°45'1313.1
2015-Apr-05 06:34N 37°41' W 026°29'1313.5
2015-Apr-05 05:33N 37°38' W 026°13'1413.6
2015-Apr-05 04:33N 37°34' W 025°56'1413.9
2015-Apr-05 03:34N 37°31' W 025°39'1414.1
2015-Apr-05 02:34N 37°30' W 025°21'1413.9
2015-Apr-05 01:33N 37°28' W 025°04'1414.1
2015-Apr-05 00:34N 37°27' W 024°46'1414.2
2015-Apr-04 23:33N 37°25' W 024°28'1414.2
2015-Apr-04 22:33N 37°24' W 024°11'1414.2
2015-Apr-04 21:33N 37°22' W 023°53'1414.1
2015-Apr-04 20:33N 37°20' W 023°35'63714.5
2015-Apr-03 00:33N 36°08' W 010°25'1413.8
2015-Apr-02 23:34N 36°06' W 010°08'1414.0
2015-Apr-02 22:33N 36°05' W 009°51'1514.0
2015-Apr-02 21:30N 36°03' W 009°33'1314.3
2015-Apr-02 20:33N 36°01' W 009°16'4214.1
2015-Apr-02 17:33N 35°58' W 008°24'2814.1
2015-Apr-02 15:33N 35°58' W 007°49'1414.2
2015-Apr-02 14:32N 35°58' W 007°31'9914.2
2015-Apr-02 07:33N 35°59' W 005°29'1312.5
2015-Apr-02 06:33N 36°03' W 005°14'21314.7
2015-Apr-01 16:05N 36°06' W 000°50'814.7
2015-Apr-01 15:31N 36°05' W 000°40'1513.9
2015-Apr-01 14:27N 36°02' W 000°22'  
2015-Mar-30 10:07N 35°53' W 000°14'3 0.8
2015-Mar-30 06:05N 35°54' W 000°10'2 0.5
2015-Mar-30 01:33N 35°56' W 000°10'0 0.1
2015-Mar-30 00:26N 35°56' W 000°10'0 0.2
2015-Mar-29 23:33N 35°56' W 000°10'0 0.3
2015-Mar-29 22:31N 35°56' W 000°10'0 0.3
2015-Mar-29 21:21N 35°56' W 000°10'0 0.1
2015-Mar-29 18:33N 35°56' W 000°09'4 1.1
2015-Mar-29 14:33N 35°51' W 000°09'8 0.6
2015-Mar-29 01:21N 35°56' W 000°16'3 0.4
2015-Mar-28 18:07N 35°54' W 000°14'1 1.9
2015-Mar-28 17:31N 35°55' W 000°13'2 0.1
2015-Mar-27 21:30N 35°55' W 000°10'1 0.8
2015-Mar-27 20:33N 35°55' W 000°11'1 1.0
2015-Mar-27 19:33N 35°55' W 000°12'1 1.2
2015-Mar-27 18:30N 35°55' W 000°14'1 0.8
2015-Mar-27 17:33N 35°55' W 000°15'6 5.0
2015-Mar-27 16:18N 35°57' W 000°08'  
Track history (hours):
 
Tides and Currents Weather Stations Pressure Air Temp Water Temp Dewpoint Dewpoint Depression Visibility Wind Speed Wind Dir Waves Ship Positions

Cap Theodora

Last reported at 2015-Apr-05 20:34 UTC. Time now 2015-May-06 07:24 UTC.
Position N 38°28' W 030°23'.
Warning: this ship's position is 30 days out of date.

Length 274 m; draft 15.2 m.

Type: Tanker. MMSI: 240840000.

Date/timePositionNaut miles runAvg speedWind from/ knotsBaromVisibWave heightAir tempDewpointWater temp
2015-Apr-05 20:34N 38°28' W 030°23'1514.6
2015-Apr-05 19:33N 38°25' W 030°05'1414.0
2015-Apr-05 18:33N 38°21' W 029°48'1413.9
2015-Apr-05 17:33N 38°18' W 029°31'1413.8
2015-Apr-05 16:33N 38°14' W 029°13'1413.6
2015-Apr-05 15:33N 38°11' W 028°57'1413.6
2015-Apr-05 14:33N 38°08' W 028°40'1413.7
2015-Apr-05 13:33N 38°04' W 028°23'1413.8
2015-Apr-05 12:33N 38°01' W 028°06'1414.0
2015-Apr-05 11:33N 37°57' W 027°49'1413.6
2015-Apr-05 10:33N 37°54' W 027°32'1312.7
2015-Apr-05 09:34N 37°51' W 027°17'1312.7
2015-Apr-05 08:33N 37°47' W 027°01'1312.9
2015-Apr-05 07:33N 37°44' W 026°45'1313.1
2015-Apr-05 06:34N 37°41' W 026°29'1313.5
2015-Apr-05 05:33N 37°38' W 026°13'1413.6
2015-Apr-05 04:33N 37°34' W 025°56'1413.9
2015-Apr-05 03:34N 37°31' W 025°39'1414.1
2015-Apr-05 02:34N 37°30' W 025°21'1413.9
2015-Apr-05 01:33N 37°28' W 025°04'1414.1
2015-Apr-05 00:34N 37°27' W 024°46'1414.2
2015-Apr-04 23:33N 37°25' W 024°28'1414.2
2015-Apr-04 22:33N 37°24' W 024°11'1414.2
2015-Apr-04 21:33N 37°22' W 023°53'1414.1
2015-Apr-04 20:33N 37°20' W 023°35'63714.5
2015-Apr-03 00:33N 36°08' W 010°25'1413.8
2015-Apr-02 23:34N 36°06' W 010°08'1414.0
2015-Apr-02 22:33N 36°05' W 009°51'1514.0
2015-Apr-02 21:30N 36°03' W 009°33'1314.3
2015-Apr-02 20:33N 36°01' W 009°16'4214.1
2015-Apr-02 17:33N 35°58' W 008°24'2814.1
2015-Apr-02 15:33N 35°58' W 007°49'1414.2
2015-Apr-02 14:32N 35°58' W 007°31'9914.2
2015-Apr-02 07:33N 35°59' W 005°29'1312.5
2015-Apr-02 06:33N 36°03' W 005°14'21314.7
2015-Apr-01 16:05N 36°06' W 000°50'814.7
2015-Apr-01 15:31N 36°05' W 000°40'1513.9
2015-Apr-01 14:27N 36°02' W 000°22'  
2015-Mar-30 10:07N 35°53' W 000°14'3 0.8
2015-Mar-30 06:05N 35°54' W 000°10'2 0.5
2015-Mar-30 01:33N 35°56' W 000°10'0 0.1
2015-Mar-30 00:26N 35°56' W 000°10'0 0.2
2015-Mar-29 23:33N 35°56' W 000°10'0 0.3
2015-Mar-29 22:31N 35°56' W 000°10'0 0.3
2015-Mar-29 21:21N 35°56' W 000°10'0 0.1
2015-Mar-29 18:33N 35°56' W 000°09'4 1.1
2015-Mar-29 14:33N 35°51' W 000°09'8 0.6
2015-Mar-29 01:21N 35°56' W 000°16'3 0.4
2015-Mar-28 18:07N 35°54' W 000°14'1 1.9
2015-Mar-28 17:31N 35°55' W 000°13'2 0.1
2015-Mar-27 21:30N 35°55' W 000°10'1 0.8
2015-Mar-27 20:33N 35°55' W 000°11'1 1.0
2015-Mar-27 19:33N 35°55' W 000°12'1 1.2
2015-Mar-27 18:30N 35°55' W 000°14'1 0.8
2015-Mar-27 17:33N 35°55' W 000°15'6 5.0
2015-Mar-27 16:18N 35°57' W 000°08'  

Dump ship's entire track history